sat.trackr.live / text

‹ back to catalog

STARLINK-3853

NORAD 52359 · 2022-045AE

PAYLOAD ACTIVE UNKNOWN

§ Identity

Operator
Country
US
Launch date
2022-04-29
Launch site
AFETR
Launch vehicle
Mass (kg)
RCS (m²)

Purposes: comms

External: N2YO · Heavens-Above · Gunter

§ Orbital elements

Epoch: 2026-05-24T22:06:28.833120Z

Period
95.44 min
Inclination
53.2141°
Eccentricity
0.0001079
Mean motion
15.08835952 rev/d
Perigee alt
539.0 km
Apogee alt
540.5 km
Semi-major
6,917.9 km
B*
3.4083e-5
RAAN
216.9161°
Arg perigee
88.2061°
Mean anomaly
271.9055°
Rev number
22,729

§ Raw data

STARLINK-38531 52359U 22045AE  26144.92116705  .00000255  00000+0  34083-4 0  99982 52359  53.2141 216.9161 0001079  88.2061 271.9055 15.08835952227297

JSON: /api/v1/satellites/52359 · /tle

For live sub-satellite position, see the globe view (requires WebGL).

§ Visibility from observer

Set your observer location to see the next 7 days of passes ≥ 10°. The values pass through the URL so the page stays shareable.

No JS? Fill the form by hand. The geolocation button needs JavaScript.